TimePDT,TemperatureF,Dew PointF,Humidity,Sea Level PressureIn,VisibilityMPH,Wind Direction,Wind SpeedMPH,Gust SpeedMPH,PrecipitationIn,Events,Conditions,WindDirDegrees,DateUTC
12:53 AM,57.0,52.0,83,29.91,9.0,ESE,3.5,-,N/A,,Overcast,120,2013-04-13 07:53:00
1:53 AM,57.9,52.0,81,29.90,9.0,East,4.6,-,N/A,,Overcast,100,2013-04-13 08:53:00
2:53 AM,57.9,52.0,81,29.89,10.0,ESE,4.6,-,N/A,,Overcast,110,2013-04-13 09:53:00
3:53 AM,57.0,52.0,83,29.88,7.0,SSW,4.6,-,N/A,,Overcast,210,2013-04-13 10:53:00
4:27 AM,57.2,51.8,82,29.88,6.0,Calm,Calm,-,N/A,,Haze,0,2013-04-13 11:27:00
4:53 AM,57.0,52.0,83,29.88,7.0,West,3.5,-,N/A,,Overcast,260,2013-04-13 11:53:00
5:01 AM,57.2,51.8,82,29.88,7.0,WSW,3.5,-,N/A,,Overcast,250,2013-04-13 12:01:00
5:53 AM,55.9,52.0,87,29.88,4.0,WSW,3.5,-,0.00,,Light Drizzle,240,2013-04-13 12:53:00
6:53 AM,55.9,52.0,87,29.88,3.0,SSW,4.6,-,0.00,,Overcast,200,2013-04-13 13:53:00
7:53 AM,57.0,53.1,87,29.90,6.0,SSW,4.6,-,N/A,,Overcast,210,2013-04-13 14:53:00
8:22 AM,57.2,53.6,88,29.90,8.0,SSW,4.6,-,N/A,,Overcast,200,2013-04-13 15:22:00
8:53 AM,57.9,52.0,81,29.90,10.0,South,4.6,-,N/A,,Overcast,190,2013-04-13 15:53:00
9:53 AM,59.0,52.0,78,29.91,10.0,South,5.8,-,N/A,,Overcast,180,2013-04-13 16:53:00
10:53 AM,59.0,52.0,78,29.92,10.0,SSW,5.8,-,N/A,,Overcast,200,2013-04-13 17:53:00
11:37 AM,59.0,51.8,77,29.92,10.0,South,6.9,-,N/A,,Overcast,190,2013-04-13 18:37:00
11:53 AM,60.1,52.0,75,29.92,10.0,South,6.9,-,N/A,,Overcast,180,2013-04-13 18:53:00
12:14 PM,60.8,51.8,72,29.91,10.0,SSW,8.1,-,N/A,,Overcast,200,2013-04-13 19:14:00
12:53 PM,61.0,53.1,75,29.92,10.0,SW,8.1,-,N/A,,Overcast,220,2013-04-13 19:53:00
1:14 PM,60.8,53.6,77,29.91,10.0,SW,10.4,-,N/A,,Overcast,220,2013-04-13 20:14:00
1:18 PM,60.8,53.6,77,29.91,5.0,SSW,10.4,-,0.00,,Light Drizzle,210,2013-04-13 20:18:00
1:53 PM,60.1,53.1,78,29.90,5.0,SW,8.1,-,0.00,,Overcast,230,2013-04-13 20:53:00
2:53 PM,60.1,52.0,75,29.88,10.0,SSW,11.5,-,N/A,,Overcast,210,2013-04-13 21:53:00
3:53 PM,60.1,52.0,75,29.87,8.0,SW,8.1,-,N/A,,Overcast,220,2013-04-13 22:53:00
5:26 PM,59.0,51.8,77,29.85,10.0,South,9.2,-,N/A,,Overcast,180,2013-04-14 00:26:00
5:53 PM,59.0,51.1,75,29.85,9.0,SSW,8.1,-,N/A,,Overcast,210,2013-04-14 00:53:00
6:53 PM,57.9,51.1,78,29.86,9.0,SSE,8.1,-,N/A,,Overcast,160,2013-04-14 01:53:00
7:53 PM,57.9,50.0,75,29.86,9.0,SSE,6.9,-,N/A,,Overcast,160,2013-04-14 02:53:00
8:53 PM,57.0,48.9,74,29.88,9.0,South,9.2,-,N/A,,Overcast,170,2013-04-14 03:53:00
9:53 PM,57.0,48.9,74,29.90,8.0,SSE,6.9,-,N/A,,Overcast,150,2013-04-14 04:53:00
10:53 PM,57.0,46.9,69,29.90,8.0,SSE,8.1,-,N/A,,Overcast,150,2013-04-14 05:53:00
11:53 PM,57.0,46.9,69,29.89,10.0,South,9.2,-,N/A,,Overcast,180,2013-04-14 06:53:00